Previsão horária em Abakumovka

Hoje, 13 Abril, Terça-feira

Tempo Temperatura Precipitação Vento Pressão Humidade
00:00 +11°C° 0 mm 4 m/s 756 mmHg 67%
01:00 +11°C° 0 mm 4 m/s 756 mmHg 67%
02:00 +10°C° 0 mm 4 m/s 756 mmHg 66%
03:00 +10°C° 0 mm 4 m/s 756 mmHg 65%
04:00 +8°C° 0 mm 4 m/s 756 mmHg 66%
05:00 +7°C° 0 mm 4 m/s 756 mmHg 67%
06:00 +7°C° 0 mm 4 m/s 756 mmHg 68%
07:00 +10°C° 0 mm 4 m/s 756 mmHg 61%
08:00 +12°C° 0 mm 5 m/s 756 mmHg 53%
09:00 +14°C° 0 mm 5 m/s 757 mmHg 46%
10:00 +16°C° 0 mm 6 m/s 756 mmHg 40%
11:00 +19°C° 0 mm 6 m/s 756 mmHg 35%
12:00 +21°C° 0 mm 7 m/s 756 mmHg 29%
13:00 +21°C° 0 mm 7 m/s 756 mmHg 28%
14:00 +22°C° 0 mm 7 m/s 755 mmHg 27%
15:00 +22°C° 0 mm 8 m/s 755 mmHg 27%
16:00 +21°C° 0 mm 7 m/s 755 mmHg 30%
17:00 +20°C° 0 mm 6 m/s 755 mmHg 33%
18:00 +19°C° 0 mm 6 m/s 754 mmHg 36%
19:00 +16°C° 0 mm 5 m/s 755 mmHg 42%
20:00 +14°C° 0 mm 5 m/s 755 mmHg 48%
21:00 +13°C° 0 mm 5 m/s 755 mmHg 53%
22:00 +12°C° 0 mm 4 m/s 755 mmHg 57%
23:00 +11°C° 0 mm 4 m/s 754 mmHg 60%

Amanhã, 14 Abril, Quarta-feira

Tempo Temperatura Precipitação Vento Pressão Humidade
00:00 +10°C° 0 mm 4 m/s 754 mmHg 64%
01:00 +10°C° 0 mm 4 m/s 754 mmHg 66%
02:00 +8°C° 0 mm 4 m/s 754 mmHg 68%
03:00 +8°C° 0 mm 4 m/s 753 mmHg 70%
04:00 +8°C° 0 mm 4 m/s 753 mmHg 70%
05:00 +7°C° 0 mm 4 m/s 753 mmHg 71%
06:00 +7°C° 0 mm 4 m/s 753 mmHg 71%
07:00 +10°C° 0 mm 4 m/s 753 mmHg 64%
08:00 +10°C° 0 mm 5 m/s 752 mmHg 57%
09:00 +13°C° 0 mm 5 m/s 752 mmHg 50%
10:00 +14°C° 0 mm 5 m/s 752 mmHg 45%
11:00 +16°C° 0 mm 5 m/s 752 mmHg 41%
12:00 +17°C° 0 mm 5 m/s 752 mmHg 36%
13:00 +19°C° 0 mm 5 m/s 751 mmHg 34%
14:00 +20°C° 0 mm 6 m/s 751 mmHg 31%
15:00 +20°C° 0 mm 6 m/s 750 mmHg 29%
16:00 +20°C° 0 mm 5 m/s 750 mmHg 33%
17:00 +19°C° 0 mm 4 m/s 750 mmHg 37%
18:00 +18°C° 0 mm 4 m/s 750 mmHg 41%
19:00 +15°C° 0 mm 4 m/s 750 mmHg 45%
20:00 +14°C° 0 mm 4 m/s 750 mmHg 50%
21:00 +12°C° 0 mm 3 m/s 750 mmHg 54%
22:00 +12°C° 0 mm 3 m/s 750 mmHg 56%
23:00 +11°C° 0 mm 3 m/s 749 mmHg 58%

Depois de amanhã, 15 Abril, Quinta-feira

Tempo Temperatura Precipitação Vento Pressão Humidade
00:00 +11°C° 0 mm 3 m/s 749 mmHg 60%
01:00 +10°C° 0 mm 3 m/s 749 mmHg 63%
02:00 +10°C° 0 mm 3 m/s 749 mmHg 66%
03:00 +10°C° 0 mm 3 m/s 749 mmHg 69%
04:00 +9°C° 0 mm 3 m/s 748 mmHg 71%
05:00 +9°C° 0 mm 3 m/s 748 mmHg 72%
06:00 +9°C° 0 mm 3 m/s 748 mmHg 74%
07:00 +11°C° 0 mm 4 m/s 748 mmHg 68%
08:00 +13°C° 0 mm 4 m/s 748 mmHg 62%
09:00 +14°C° 0 mm 5 m/s 748 mmHg 56%
10:00 +15°C° 0 mm 5 m/s 748 mmHg 52%
11:00 +17°C° 0 mm 5 m/s 748 mmHg 48%
12:00 +19°C° 0 mm 4 m/s 747 mmHg 43%
13:00 +19°C° 0 mm 4 m/s 747 mmHg 41%
14:00 +20°C° 0 mm 4 m/s 747 mmHg 39%
15:00 +20°C° 0 mm 4 m/s 747 mmHg 37%
16:00 +20°C° 0 mm 4 m/s 747 mmHg 41%
17:00 +19°C° 0 mm 3 m/s 747 mmHg 45%
18:00 +18°C° 0 mm 3 m/s 747 mmHg 50%
19:00 +17°C° 0 mm 2 m/s 747 mmHg 53%
20:00 +16°C° 0 mm 1 m/s 747 mmHg 57%
21:00 +15°C° 0 mm 1 m/s 747 mmHg 60%
22:00 +14°C° 0 mm 1 m/s 747 mmHg 63%
23:00 +14°C° 0 mm 1 m/s 747 mmHg 67%

16 Abril, Sexta-feira

Tempo Temperatura Precipitação Vento Pressão Humidade
00:00 +13°C° 0 mm 2 m/s 747 mmHg 70%
01:00 +12°C° 0 mm 2 m/s 746 mmHg 72%
02:00 +12°C° 0 mm 2 m/s 746 mmHg 73%
03:00 +10°C° 0 mm 2 m/s 746 mmHg 74%
04:00 +10°C° 0 mm 2 m/s 746 mmHg 76%
05:00 +10°C° 0 mm 2 m/s 746 mmHg 77%
06:00 +10°C° 0 mm 2 m/s 746 mmHg 78%
07:00 +12°C° 0 mm 2 m/s 746 mmHg 71%
08:00 +14°C° 0 mm 2 m/s 747 mmHg 64%
09:00 +15°C° 0 mm 2 m/s 747 mmHg 57%
10:00 +17°C° 0 mm 2 m/s 747 mmHg 52%
11:00 +18°C° 0 mm 2 m/s 747 mmHg 48%
12:00 +20°C° 0 mm 2 m/s 747 mmHg 43%
13:00 +20°C° 0 mm 3 m/s 747 mmHg 40%
14:00 +21°C° 0 mm 3 m/s 747 mmHg 38%
15:00 +21°C° 0 mm 3 m/s 747 mmHg 35%
16:00 +20°C° 0 mm 3 m/s 747 mmHg 40%
17:00 +19°C° 0 mm 3 m/s 747 mmHg 45%
18:00 +18°C° 0 mm 2 m/s 747 mmHg 49%
19:00 +17°C° 0.3 mm 3 m/s 747 mmHg 55%
20:00 +16°C° 0.3 mm 3 m/s 748 mmHg 61%
21:00 +13°C° 0.3 mm 4 m/s 748 mmHg 67%
22:00 +13°C° 0.1 mm 3 m/s 748 mmHg 70%
23:00 +12°C° 0.1 mm 3 m/s 748 mmHg 72%

17 Abril, Sábado

Tempo Temperatura Precipitação Vento Pressão Humidade
00:00 +11°C° 0.1 mm 3 m/s 748 mmHg 75%
01:00 +11°C° 0 mm 3 m/s 748 mmHg 79%
02:00 +11°C° 0 mm 4 m/s 748 mmHg 82%
03:00 +9°C° 0 mm 5 m/s 748 mmHg 86%
04:00 +9°C° 0 mm 5 m/s 749 mmHg 88%
05:00 +9°C° 0 mm 5 m/s 749 mmHg 90%
06:00 +8°C° 0 mm 6 m/s 749 mmHg 92%
07:00 +9°C° 0 mm 6 m/s 749 mmHg 86%
08:00 +10°C° 0 mm 7 m/s 749 mmHg 80%
09:00 +11°C° 0 mm 7 m/s 750 mmHg 73%
10:00 +12°C° 0 mm 7 m/s 750 mmHg 70%
11:00 +12°C° 0 mm 8 m/s 750 mmHg 67%
12:00 +12°C° 0 mm 8 m/s 750 mmHg 64%
13:00 +12°C° 0.1 mm 8 m/s 751 mmHg 63%
14:00 +12°C° 0.1 mm 8 m/s 751 mmHg 62%
15:00 +13°C° 0.1 mm 8 m/s 751 mmHg 61%
16:00 +12°C° 0.1 mm 8 m/s 751 mmHg 62%
17:00 +12°C° 0.1 mm 7 m/s 751 mmHg 63%
18:00 +11°C° 0.1 mm 7 m/s 752 mmHg 64%
19:00 +11°C° 0 mm 7 m/s 752 mmHg 60%
20:00 +10°C° 0 mm 7 m/s 753 mmHg 56%
21:00 +10°C° 0 mm 7 m/s 753 mmHg 52%
22:00 +9°C° 0 mm 7 m/s 754 mmHg 53%
23:00 +8°C° 0 mm 7 m/s 754 mmHg 53%

18 Abril, Domingo

Tempo Temperatura Precipitação Vento Pressão Humidade
00:00 +6°C° 0 mm 7 m/s 754 mmHg 54%
01:00 +5°C° 0 mm 7 m/s 755 mmHg 55%
02:00 +4°C° 0 mm 6 m/s 756 mmHg 57%
03:00 +3°C° 0 mm 6 m/s 756 mmHg 58%
04:00 +3°C° 0 mm 6 m/s 757 mmHg 58%
05:00 +2°C° 0 mm 6 m/s 757 mmHg 58%
06:00 +1°C° 0 mm 6 m/s 758 mmHg 57%
07:00 +2°C° 0 mm 6 m/s 758 mmHg 53%
08:00 +4°C° 0 mm 6 m/s 758 mmHg 48%
09:00 +5°C° 0 mm 6 m/s 759 mmHg 44%
10:00 +7°C° 0 mm 6 m/s 759 mmHg 39%
11:00 +8°C° 0 mm 6 m/s 759 mmHg 34%
12:00 +9°C° 0 mm 5 m/s 759 mmHg 30%
13:00 +9°C° 0 mm 5 m/s 759 mmHg 28%
14:00 +10°C° 0 mm 5 m/s 759 mmHg 26%
15:00 +10°C° 0 mm 5 m/s 759 mmHg 25%
16:00 +10°C° 0 mm 5 m/s 759 mmHg 27%
17:00 +10°C° 0 mm 4 m/s 759 mmHg 29%
18:00 +10°C° 0 mm 4 m/s 759 mmHg 31%
19:00 +9°C° 0 mm 3 m/s 759 mmHg 35%
20:00 +7°C° 0 mm 3 m/s 759 mmHg 39%
21:00 +5°C° 0 mm 3 m/s 760 mmHg 43%
22:00 +5°C° 0 mm 3 m/s 760 mmHg 44%
23:00 +4°C° 0 mm 3 m/s 760 mmHg 45%
Mostrar mais

Necessitamos do seu Consentimento

A Meteoprog e os seus Fornecedores de Serviços podem armazenar e aceder a dados pessoais como cookies, identificadores do dispositivo ou outras tecnologias semelhantes existentes no seu dispositivo e processar estes dados para personalizar conteúdos e anúncios, assim como funcionalidades nas redes sociais e análise de tráfego.

  • Armazenar e/ou aceder a informações no seu dispositivo

    Os cookies, identificadores do dispositivo ou outras informações podem ser armazenados ou acedidos no seu dispositivo, para os fins acima indicados.

  • Anúncios e conteúdos personalizados, medição de anúncios e conteúdos, dados sobre o público-alvo e desenvolvimento de produtos

    Os anúncios e os conteúdos podem ser personalizados com base num perfil. Podem ser adicionados dados adicionais para uma maior personalização dos anúncios e dos conteúdos. A eficácia dos anúncios e dos conteúdos pode ser medida. Podem ser obtidas informações sobre o público que visualizou os anúncios e os conteúdos. Estes dados podem ser usados para desenvolver ou melhorar sistemas, softwares ou a experiência do utilizador.

Ao clicar em "Eu concordo”, permitirá o uso de cookies, identificadores do dispositivo e web beacons mencionados ou outras tecnologias semelhantes. As configurações do navegador do seu dispositivo podem ser alteradas.

Para certos fins, podem ser invocados interesses legítimos ao invés de consentimento. Pode ler mais informação sobre este assunto na nossa Política de Privacidade e Cookies.